Weather History for KADG - January, 2014

Change the Weather History Date:

Tuesday, January 7, 2014

  Actual Average Record
Temperature  
Mean Temperature -8 °F -  
Max Temperature -2 °F 30 °F 63 °F (2008)
Min Temperature -15 °F 14 °F -15 °F (2014)
Degree Days  
Heating Degree Days 74    
Moisture  
Dew Point -16 °F    
Average Humidity 71    
Maximum Humidity 83    
Minimum Humidity 65    
Precipitation  
Precipitation 0.00 in - - ()
Sea Level Pressure  
Sea Level Pressure 30.32 in    
Wind  
Wind Speed 10 mph (WSW)    
Max Wind Speed 17 mph    
Max Gust Speed 26 mph    
Visibility 10 miles    
Events Snow    
Averages and records for this station are not official NWS values.
T = Trace of Precipitation, MM = Missing Value Source: NWS Daily Summary

Daily Weather History Graph

Daily Weather History Graph

Search for Another Location

Airport or City:

Trip Planner

Search our weather history database for the weather conditions in past years. The results will help you decide how hot, cold, wet, or windy it might be!

Date:

Astronomy

Jan. 07, 2014 Rise Set
Actual Time 8:03 AM EST 5:21 PM EST
Civil Twilight 7:32 AM EST 5:52 PM EST
Nautical Twilight 6:57 AM EST 6:27 PM EST
Astronomical Twilight 6:24 AM EST 7:01 PM EST
Moon 11:45 AM EST (1/7) No Moon Set
Length of Visible Light 10h 20m
Length of Day
9h 17m
Waxing Crescent, 45% of the Moon is Illuminated
Jan 7
Waxing Crescent
Jan 7
First Quarter
Jan 15
Full
Jan 24
Last Quarter
Jan 30
New

Hourly Weather History & Observations

Time (EST) Temp. Windchill Dew Point Humidity Pressure Visibility Wind Dir Wind Speed Gust Speed Precip Events Conditions
12:53 AM -15.0 °F -33.7 °F -22.0 °F 71% 30.21 in 9.0 mi West 9.2 mph 21.9 mph 0.00 in Snow Light Snow
1:53 AM -15.0 °F -36.8 °F -22.0 °F 71% 30.22 in 9.0 mi West 12.7 mph 19.6 mph 0.00 in Snow Light Snow
2:53 AM -14.1 °F -35.7 °F -22.0 °F 68% 30.25 in 10.0 mi West 12.7 mph 20.7 mph 0.00 in   Clear
3:53 AM -14.1 °F -34.7 °F -20.9 °F 71% 30.24 in 9.0 mi WSW 11.5 mph - 0.00 in Snow Light Snow
4:53 AM -14.1 °F -34.7 °F -20.9 °F 71% 30.24 in 9.0 mi WSW 11.5 mph - 0.00 in Snow Light Snow
5:53 AM -15.0 °F -35.9 °F -20.9 °F 75% 30.26 in 9.0 mi WSW 11.5 mph - 0.00 in Snow Light Snow
6:53 AM -14.1 °F -32.6 °F -20.9 °F 71% 30.27 in 9.0 mi WSW 9.2 mph - 0.00 in Snow Light Snow
7:53 AM -13.0 °F -32.4 °F -18.9 °F 75% 30.28 in 9.0 mi WSW 10.4 mph 18.4 mph 0.00 in Snow Light Snow
8:53 AM -11.9 °F -32.0 °F -18.0 °F 74% 30.30 in 9.0 mi WSW 11.5 mph 19.6 mph 0.00 in Snow Light Snow
9:53 AM -9.9 °F -32.8 °F -17.0 °F 71% 30.32 in 10.0 mi WSW 16.1 mph 24.2 mph 0.00 in   Clear
10:53 AM -9.0 °F -32.4 °F -16.1 °F 71% 30.36 in 9.0 mi West 17.3 mph 26.5 mph 0.00 in   Clear
11:53 AM -7.1 °F -28.4 °F -15.0 °F 68% 30.34 in 10.0 mi WSW 15.0 mph 23.0 mph N/A   Clear
12:53 PM -5.1 °F -24.3 °F -14.1 °F 65% 30.31 in 10.0 mi WSW 12.7 mph 20.7 mph N/A   Clear
1:53 PM -4.0 °F -23.7 °F -11.9 °F 69% 30.31 in 10.0 mi WSW 13.8 mph 19.6 mph N/A   Clear
2:53 PM -4.0 °F -23.0 °F -11.9 °F 69% 30.32 in 10.0 mi WSW 12.7 mph 20.7 mph N/A   Clear
3:53 PM -2.9 °F -18.8 °F -11.9 °F 65% 30.33 in 10.0 mi WSW 9.2 mph - N/A   Clear
4:53 PM -2.9 °F -17.7 °F -11.9 °F 65% 30.34 in 10.0 mi WSW 8.1 mph - N/A   Clear
5:53 PM -5.1 °F -15.8 °F -13.0 °F 69% 30.34 in 10.0 mi WSW 4.6 mph - N/A   Clear
6:53 PM -6.0 °F -20.1 °F -13.0 °F 72% 30.36 in 10.0 mi WSW 6.9 mph - N/A   Clear
7:53 PM -6.0 °F -20.1 °F -13.0 °F 72% 30.37 in 10.0 mi WSW 6.9 mph - N/A   Clear
8:53 PM -7.1 °F - -13.0 °F 75% 30.39 in 10.0 mi Calm Calm - N/A   Clear
9:53 PM -6.0 °F -14.7 °F -13.0 °F 72% 30.40 in 10.0 mi West 3.5 mph - N/A   Clear
10:53 PM -9.0 °F - -14.1 °F 79% 30.41 in 10.0 mi Calm Calm - N/A   Clear
11:53 PM -11.0 °F - -15.0 °F 83% 30.40 in 10.0 mi Calm Calm - N/A   Clear